Find Starlink 5621

NORAD ID: 55434 Int'l Des: 2023-014 Owner: SPXS Country: US Constellation: starlink operational
LEOCIRCULAR

实时位置

正在加载3D地球...

关于 Starlink 5621

正在加载描述...

即将过境

Passes for default location (London). Set your location on the main map for personalized predictions.

高度历史

Loading altitude history...

两行轨道根数

1 55434U 23014AV 26105.44433853 -.00006517 00000-0 -53840-3 0 9993
2 55434 70.0024 11.8073 0002480 284.0134 76.0749 14.98366151176575
Epoch: Apr 15, 2026 • Age: 12 hours

当前状态

高度 583.9 km
速度 7.57 km/s
星下点 63.29°N, 34.92°W
发射日期 Jan 31, 2023
运行时间 3.2 years
类型 internet

技术详情

分类 Payload
质量 305.00 kg
干质量 290.00 kg
总质量 305.00 kg
长度 0.20 m
直径 2.80 m
跨度 9.00 m
形状 Box + pan
制造商 SPXS
平台类型 Starlink
阶段状态 In Orbit
所有者/国家 SPXS/US

Most Searched